GW4147 Weather Reports


Display with metric or nautical units.
time (UTC)temp
F
wind
direction
speed
MPH
gust
MPH
rain 1hr
in
rain 24hr
in
rain mn
in
humidity
%
barometer
mb
20260508155817 67 142 2.0 11.0 0.00 0.15 0.15 73 1014.9
20260508155314 67 189 2.0 5.0 0.00 0.15 0.15 73 1015.0
20260508154811 68 139 1.0 5.0 0.00 0.15 0.15 73 1014.8
20260508154309 67 144 3.0 5.0 0.00 0.15 0.15 75 1015.1
20260508153805 66 172 0.0 4.0 0.00 0.15 0.15 76 1015.0
20260508153303 66 183 4.0 5.0 0.00 0.15 0.15 76 1015.0
20260508152759 66 183 4.0 4.0 0.00 0.15 0.15 75 1015.1
20260508152256 65 180 6.0 6.0 0.00 0.15 0.15 75 1015.4
20260508151752 65 206 2.0 5.0 0.00 0.15 0.15 76 1015.3
20260508151249 65 189 3.0 4.0 0.00 0.15 0.15 78 1015.5
20260508150745 65 180 3.0 4.0 0.00 0.15 0.15 77 1015.9
20260508150242 65 209 2.0 5.0 0.00 0.15 0.15 76 1015.7
20260508145738 65 176 6.0 9.0 0.00 0.15 0.15 76 1015.5
20260508145234 64 107 2.0 7.0 0.00 0.15 0.15 78 1015.5
20260508144731 64 182 3.0 4.0 0.00 0.15 0.15 78 1015.4
20260508144230 64 114 2.0 6.0 0.00 0.15 0.15 79 1015.3
20260508143727 64 158 4.0 6.0 0.00 0.15 0.15 80 1015.4
20260508143223 64 219 3.0 4.0 0.00 0.15 0.15 81 1015.4
20260508142719 64 144 2.0 6.0 0.00 0.15 0.15 83 1015.5
20260508142217 64 205 3.0 5.0 0.00 0.15 0.15 83 1015.8
20260508141713 64 156 3.0 5.0 0.00 0.15 0.15 84 1015.7
20260508141211 63 184 3.0 5.0 0.00 0.15 0.15 86 1015.6
20260508140708 63 106 0.0 4.0 0.00 0.15 0.15 88 1015.6
20260508140204 63 102 2.0 4.0 0.00 0.15 0.15 87 1015.6
20260508135701 63 105 1.0 4.0 0.00 0.15 0.15 88 1016.0
20260508135156 63 71 2.0 3.0 0.00 0.15 0.15 88 1015.7
20260508134653 62 80 4.0 5.0 0.00 0.15 0.15 89 1015.6
20260508134150 62 135 0.0 3.0 0.00 0.15 0.15 89 1015.8
20260508133647 62 65 1.0 2.0 0.00 0.15 0.15 90 1016.0
20260508133144 61 161 1.0 2.0 0.00 0.15 0.15 90 1015.9
20260508132642 61 49 0.0 2.0 0.00 0.15 0.15 91 1016.0
20260508132139 61 149 1.0 2.0 0.00 0.15 0.15 91 1015.8
20260508131634 61 135 0.0 1.0 0.00 0.15 0.15 91 1016.0
20260508131131 60 107 4.0 5.0 0.00 0.15 0.15 92 1015.8
20260508130628 60 94 4.0 4.0 0.00 0.15 0.15 92 1015.8
20260508130125 60 208 2.0 5.0 0.00 0.15 0.15 92 1015.8
20260508125620 60 95 0.0 3.0 0.00 0.15 0.15 92 1015.6
20260508125118 60 98 2.0 4.0 0.00 0.15 0.15 92 1015.4
20260508124616 60 68 3.0 3.0 0.00 0.15 0.15 92 1015.8
20260508124112 60 60 0.0 3.0 0.00 0.15 0.15 92 1016.0
20260508123611 60 175 2.0 3.0 0.00 0.15 0.15 93 1015.6
20260508123108 60 103 1.0 3.0 0.00 0.15 0.15 93 1015.4
20260508122603 60 41 2.0 4.0 0.00 0.15 0.15 93 1015.3
20260508122101 59 116 2.0 3.0 0.00 0.15 0.15 93 1016.0
20260508121559 60 113 5.0 5.0 0.00 0.15 0.15 93 1016.0
20260508121057 60 92 2.0 4.0 0.00 0.15 0.15 93 1015.6
20260508120554 60 98 2.0 3.0 0.00 0.15 0.15 93 1016.0
20260508120053 60 201 2.0 2.0 0.00 0.15 0.15 93 1016.0
20260508115549 60 59 2.0 3.0 0.00 0.15 0.15 93 1016.0
20260508115046 59 259 2.0 5.0 0.00 0.15 0.15 93 1016.0
20260508114543 59 114 2.0 4.0 0.00 0.15 0.15 93 1015.7
20260508114039 59 106 3.0 4.0 0.02 0.15 0.15 93 1015.4
20260508113537 59 196 2.0 3.0 0.02 0.15 0.15 92 1016.0
20260508113035 59 155 3.0 3.0 0.40 0.14 0.14 92 1015.6
20260508112531 60 199 3.0 5.0 0.45 0.14 0.14 91 1015.6
20260508112028 60 193 5.0 5.0 0.07 0.07 0.07 91 1015.9
20260508111525 60 216 2.0 5.0 0.00 0.06 0.06 91 1015.9
20260508111021 60 192 2.0 6.0 0.00 0.06 0.06 90 1015.2
20260508110519 60 131 2.0 4.0 0.00 0.06 0.06 90 1014.8
20260508110015 60 112 5.0 6.0 0.05 0.06 0.06 90 1015.0
20260508105510 60 129 0.0 5.0 0.05 0.06 0.06 90 1015.0
20260508105008 60 125 3.0 5.0 0.02 0.06 0.06 90 1015.0
20260508104506 60 23 0.0 9.0 0.17 0.06 0.06 89 1015.3
20260508104002 60 195 5.0 6.0 0.12 0.05 0.05 89 1015.5
20260508103459 60 147 1.0 4.0 0.00 0.03 0.03 89 1015.4
20260508102956 60 144 0.0 2.0 0.00 0.03 0.03 89 1015.4
20260508102454 60 52 1.0 4.0 0.00 0.03 0.03 89 1014.5
20260508101951 60 110 2.0 4.0 0.00 0.03 0.03 89 1015.0
20260508101449 60 213 3.0 4.0 0.05 0.03 0.03 89 1015.9
20260508100945 60 252 3.0 4.0 0.05 0.03 0.03 89 1015.5
20260508100444 60 210 1.0 2.0 0.00 0.02 0.02 89 1015.1
20260508095940 60 109 2.0 3.0 0.00 0.02 0.02 88 1014.8
20260508095438 60 243 0.0 2.0 0.00 0.02 0.02 88 1015.2
20260508094934 60 86 3.0 3.0 0.00 0.02 0.02 88 1014.9
20260508094430 60 53 0.0 2.0 0.00 0.02 0.02 87 1014.9
20260508093927 60 256 1.0 2.0 0.00 0.02 0.02 86 1014.9
20260508093425 60 44 0.0 1.0 0.02 0.02 0.02 86 1014.9
20260508092922 60 180 2.0 2.0 0.02 0.02 0.02 85 1014.8
20260508092420 61 147 2.0 3.0 0.09 0.02 0.02 84 1014.8
20260508091918 61 235 1.0 4.0 0.09 0.02 0.02 82 1014.7
20260508091414 61 186 3.0 5.0 0.00 0.00 0.00 81 1015.2
20260508090912 61 118 3.0 5.0 0.00 0.00 0.00 80 1014.8
20260508090411 61 177 2.0 5.0 0.00 0.00 0.00 80 1014.8
20260508085911 61 86 2.0 5.0 0.00 0.00 0.00 80 1015.1
20260508085408 61 204 0.0 6.0 0.00 0.00 0.00 80 1015.2
20260508084905 61 175 5.0 6.0 0.00 0.00 0.00 79 1014.9
20260508084401 61 180 5.0 6.0 0.00 0.00 0.00 79 1015.3
20260508083859 61 179 2.0 3.0 0.00 0.00 0.00 79 1015.0
20260508083357 61 35 1.0 3.0 0.00 0.00 0.00 79 1015.0
20260508082856 61 172 3.0 5.0 0.00 0.00 0.00 79 1015.2
20260508082354 61 152 4.0 6.0 0.00 0.00 0.00 80 1015.2
20260508081851 61 103 0.0 6.0 0.00 0.00 0.00 80 1015.5
20260508081348 62 115 2.0 4.0 0.00 0.00 0.00 80 1015.9
20260508080845 61 242 3.0 4.0 0.00 0.00 0.00 81 1015.7
20260508080343 62 136 2.0 4.0 0.00 0.00 0.00 79 1015.4
20260508075839 62 127 2.0 3.0 0.00 0.00 0.00 77 1015.7
20260508075336 62 294 2.0 3.0 0.00 0.00 0.00 77 1016.0
20260508074834 61 309 0.0 3.0 0.00 0.00 0.00 78 1015.6
20260508074331 61 144 1.0 2.0 0.00 0.00 0.00 78 1015.9
20260508073828 61 71 0.0 2.0 0.00 0.00 0.00 78 1016.0
20260508073326 61 97 1.0 2.0 0.00 0.00 0.00 79 1016.7
20260508072822 61 164 3.0 4.0 0.00 0.00 0.00 80 1016.7
20260508072319 60 215 2.0 3.0 0.00 0.00 0.00 80 1016.9
20260508071816 60 188 2.0 2.0 0.00 0.00 0.00 80 1016.3
20260508071314 60 142 0.0 0.0 0.00 0.00 0.00 80 1016.7
20260508070811 60 149 0.0 1.0 0.00 0.00 0.00 80 1016.2
20260508070310 60 137 0.0 2.0 0.00 0.00 0.00 81 1016.1
20260508065807 59 142 0.0 1.0 0.00 0.00 0.00 81 1016.6
20260508065307 60 124 0.0 0.0 0.00 0.00 0.00 81 1016.5
20260508064803 60 230 0.0 0.0 0.00 0.00 0.00 80 1016.7
20260508064300 60 142 0.0 1.0 0.00 0.00 0.00 79 1016.6
20260508063757 60 148 0.0 2.0 0.00 0.00 0.00 80 1016.8
20260508063255 59 55 0.0 0.0 0.00 0.00 0.00 80 1016.7
20260508062752 59 135 0.0 2.0 0.00 0.00 0.00 80 1016.9
20260508062250 59 150 0.0 1.0 0.00 0.00 0.00 80 1016.9
20260508061746 59 315 0.0 0.0 0.00 0.00 0.00 80 1017.1
20260508061243 59 315 0.0 1.0 0.00 0.00 0.00 80 1017.2
20260508060740 59 147 0.0 1.0 0.00 0.00 0.00 80 1017.1
20260508060238 59 160 0.0 1.0 0.00 0.00 0.00 80 1017.0
20260508055733 59 193 0.0 0.0 0.00 0.00 0.00 79 1016.9
20260508055230 60 142 0.0 1.0 0.00 0.00 0.00 79 1016.9
20260508054727 60 163 1.0 2.0 0.00 0.00 0.00 78 1016.9
20260508054225 60 166 1.0 2.0 0.00 0.00 0.00 77 1017.1
20260508053721 61 321 0.0 0.0 0.00 0.00 0.00 77 1017.0
20260508053219 61 321 0.0 0.0 0.00 0.00 0.00 77 1016.7
20260508052716 61 113 0.0 0.0 0.00 0.00 0.00 76 1016.8
20260508052213 62 230 0.0 1.0 0.00 0.00 0.00 75 1016.8
20260508051709 61 107 2.0 2.0 0.00 0.00 0.00 75 1016.7
20260508051205 61 116 1.0 2.0 0.00 0.00 0.00 76 1017.0
20260508050701 61 113 0.0 1.0 0.00 0.00 0.00 75 1017.1
20260508050159 60 114 1.0 2.0 0.00 0.00 0.00 76 1017.1
20260508045654 60 85 0.0 1.0 0.00 0.00 0.00 77 1017.1
20260508045152 60 219 0.0 1.0 0.00 0.00 0.00 77 1017.1
20260508044649 60 147 0.0 0.0 0.00 0.00 0.00 77 1017.0
20260508044146 60 173 0.0 2.0 0.00 0.00 0.00 76 1017.1
20260508043642 60 173 0.0 1.0 0.00 0.00 0.00 75 1016.9
20260508043140 60 147 0.0 0.0 0.00 0.00 0.00 74 1016.7
20260508042636 60 124 0.0 2.0 0.00 0.00 0.00 73 1016.9
20260508042134 61 180 0.0 0.0 0.00 0.00 0.00 72 1017.0
20260508041630 61 183 0.0 1.0 0.00 0.00 0.00 73 1017.0
20260508041127 61 148 0.0 1.0 0.00 0.00 0.00 72 1017.2
20260508040623 61 224 0.0 0.0 0.00 0.00 0.00 71 1017.0
20260508040121 61 150 0.0 1.0 0.00 0.00 0.00 70 1017.0
20260508035618 61 157 0.0 1.0 0.00 0.00 0.00 70 1017.1
20260508035115 62 159 0.0 1.0 0.00 0.00 0.00 70 1017.0
20260508034612 62 188 1.0 1.0 0.00 0.00 0.00 69 1017.1
20260508034109 62 158 1.0 2.0 0.00 0.00 0.00 69 1016.8
20260508033606 62 141 0.0 1.0 0.00 0.00 0.00 68 1016.9
20260508033104 62 126 0.0 2.0 0.00 0.00 0.00 68 1017.1
20260508032601 62 163 0.0 2.0 0.00 0.00 0.00 67 1017.0
20260508032058 63 131 0.0 2.0 0.00 0.00 0.00 67 1016.9
20260508031555 62 135 0.0 2.0 0.00 0.00 0.00 67 1016.7
20260508031051 62 174 0.0 2.0 0.00 0.00 0.00 67 1016.9
20260508030548 63 167 1.0 2.0 0.00 0.00 0.00 67 1016.8
20260508030046 62 101 0.0 2.0 0.00 0.00 0.00 67 1016.6
20260508025541 63 141 0.0 2.0 0.00 0.00 0.00 67 1016.7
20260508025039 63 151 0.0 3.0 0.00 0.00 0.00 66 1016.7
20260508024535 63 186 0.0 0.0 0.00 0.00 0.00 65 1016.6
20260508024032 64 151 0.0 2.0 0.00 0.00 0.00 64 1016.6
20260508023528 64 190 1.0 3.0 0.00 0.00 0.00 64 1016.3
20260508023026 64 157 1.0 3.0 0.00 0.00 0.00 64 1016.6
20260508022521 64 196 2.0 3.0 0.00 0.00 0.00 64 1016.3
20260508022019 64 55 0.0 3.0 0.00 0.00 0.00 65 1016.1
20260508021515 64 112 1.0 2.0 0.00 0.00 0.00 64 1016.1
20260508021010 64 164 0.0 2.0 0.00 0.00 0.00 64 1016.2
20260508020509 64 156 0.0 3.0 0.00 0.00 0.00 64 1016.2
20260508020006 65 193 2.0 2.0 0.00 0.00 0.00 64 1016.1
20260508015503 65 159 1.0 5.0 0.00 0.00 0.00 64 1016.0
20260508015000 65 118 1.0 4.0 0.00 0.00 0.00 64 1016.0
20260508014456 65 173 0.0 2.0 0.00 0.00 0.00 63 1015.9
20260508013952 66 150 0.0 3.0 0.00 0.00 0.00 62 1016.0
20260508013448 66 152 0.0 1.0 0.00 0.00 0.00 60 1015.8
20260508012946 66 198 2.0 4.0 0.00 0.00 0.00 60 1016.0
20260508012443 66 146 5.0 6.0 0.00 0.00 0.00 60 1015.9
20260508011940 66 178 2.0 4.0 0.00 0.00 0.00 59 1015.9
20260508011438 67 189 2.0 2.0 0.00 0.00 0.00 57 1015.9
20260508010936 67 194 1.0 2.0 0.00 0.00 0.00 55 1016.0
20260508010432 68 154 0.0 1.0 0.00 0.00 0.00 54 1015.8
20260508005929 68 189 1.0 2.0 0.00 0.00 0.00 53 1015.9
20260508005426 69 116 2.0 3.0 0.00 0.00 0.00 50 1015.7
20260508004923 69 83 2.0 2.0 0.00 0.00 0.00 50 1015.6
20260508004419 69 89 0.0 2.0 0.00 0.00 0.00 50 1015.4
20260508003916 70 104 2.0 4.0 0.00 0.00 0.00 47 1015.6
20260508003412 70 106 2.0 3.0 0.00 0.00 0.00 47 1015.8
20260508002910 70 102 1.0 2.0 0.00 0.00 0.00 47 1015.7
20260508002406 70 80 2.0 4.0 0.00 0.00 0.00 46 1015.9
20260508001902 71 100 0.0 2.0 0.00 0.00 0.00 45 1015.8
20260508001358 71 126 0.0 4.0 0.00 0.00 0.00 45 1015.7
20260508000855 73 117 2.0 3.0 0.00 0.00 0.00 43 1016.1
20260508000351 73 220 3.0 3.0 0.00 0.00 0.00 44 1016.5
20260507235848 73 128 1.0 4.0 0.00 0.00 0.00 44 1016.1
20260507235346 73 182 1.0 2.0 0.00 0.00 0.00 43 1016.1
20260507234843 73 135 2.0 3.0 0.00 0.00 0.00 45 1016.0
20260507234339 72 128 0.0 1.0 0.00 0.00 0.00 44 1015.9
20260507233835 73 102 2.0 3.0 0.00 0.00 0.00 44 1015.8
20260507233333 74 96 4.0 5.0 0.00 0.00 0.00 42 1016.1
20260507232831 74 233 3.0 3.0 0.00 0.00 0.00 41 1015.8
20260507232327 74 220 3.0 3.0 0.00 0.00 0.00 43 1015.8
20260507231825 74 32 1.0 2.0 0.00 0.00 0.00 42 1016.0
20260507231321 73 3 2.0 2.0 0.00 0.00 0.00 43 1016.1
20260507230817 72 88 2.0 2.0 0.00 0.00 0.00 45 1016.1
20260507230315 73 8 3.0 4.0 0.00 0.00 0.00 43 1016.3
20260507225810 73 51 2.0 5.0 0.00 0.00 0.00 46 1016.3
20260507225306 72 53 4.0 5.0 0.00 0.00 0.00 43 1016.2
20260507224802 72 100 2.0 5.0 0.00 0.00 0.00 43 1016.5
20260507224259 72 64 1.0 2.0 0.00 0.00 0.00 43 1016.6
20260507223755 72 9 2.0 2.0 0.00 0.00 0.00 42 1016.7
20260507223251 72 183 0.0 1.0 0.00 0.00 0.00 43 1016.5
20260507222749 72 37 2.0 5.0 0.00 0.00 0.00 43 1016.6
20260507222245 73 322 4.0 4.0 0.00 0.00 0.00 44 1016.8
20260507221742 72 229 1.0 2.0 0.00 0.00 0.00 42 1016.8
20260507221238 72 350 1.0 2.0 0.00 0.00 0.00 42 1016.7
20260507220735 71 27 1.0 4.0 0.00 0.00 0.00 42 1016.6
20260507220233 72 42 2.0 4.0 0.00 0.00 0.00 42 1016.7
20260507215729 72 161 1.0 2.0 0.00 0.00 0.00 43 1017.0
20260507215227 72 122 3.0 3.0 0.00 0.00 0.00 44 1016.9
20260507214724 71 62 1.0 3.0 0.00 0.00 0.00 43 1016.8
20260507214221 71 89 0.0 4.0 0.00 0.00 0.00 43 1016.8
20260507213716 71 71 4.0 4.0 0.00 0.00 0.00 43 1016.9
20260507213214 72 31 3.0 4.0 0.00 0.00 0.00 45 1017.0
20260507212709 72 80 2.0 5.0 0.00 0.00 0.00 43 1016.9
20260507212206 72 45 3.0 9.0 0.00 0.00 0.00 45 1017.0
20260507211703 72 14 2.0 3.0 0.00 0.00 0.00 42 1017.0
20260507211158 73 46 3.0 4.0 0.00 0.00 0.00 41 1017.3
20260507210656 73 349 6.0 6.0 0.00 0.00 0.00 41 1017.2
20260507210153 72 44 4.0 6.0 0.00 0.00 0.00 46 1017.2
20260507205649 73 5 5.0 7.0 0.00 0.00 0.00 42 1017.2
20260507205146 73 348 4.0 4.0 0.00 0.00 0.00 42 1017.1
20260507204642 72 35 3.0 5.0 0.00 0.00 0.00 42 1017.1
20260507204140 72 3 2.0 7.0 0.00 0.00 0.00 41 1017.3
20260507203638 73 34 4.0 6.0 0.00 0.00 0.00 44 1017.3
20260507203135 71 128 0.0 2.0 0.00 0.00 0.00 45 1017.5
20260507202631 70 98 4.0 7.0 0.00 0.00 0.00 45 1017.4
20260507202127 71 92 6.0 7.0 0.00 0.00 0.00 43 1017.7
20260507201622 72 4 4.0 11.0 0.00 0.00 0.00 44 1017.6
20260507201120 72 358 4.0 9.0 0.00 0.00 0.00 44 1017.7
20260507200615 71 308 5.0 8.0 0.00 0.00 0.00 43 1017.6
20260507200111 72 28 5.0 9.0 0.00 0.00 0.00 43 1018.0
20260507195609 71 341 7.0 8.0 0.00 0.00 0.00 43 1018.0
20260507195106 71 58 5.0 8.0 0.00 0.00 0.00 44 1017.8
20260507194602 71 17 8.0 11.0 0.00 0.00 0.00 44 1018.0
20260507194058 71 0 3.0 7.0 0.00 0.00 0.00 48 1018.0
20260507193555 71 24 2.0 6.0 0.00 0.00 0.00 43 1017.8
20260507193052 71 39 6.0 10.0 0.00 0.00 0.00 47 1018.0
20260507192548 71 103 1.0 6.0 0.00 0.00 0.00 45 1018.1
20260507192045 70 24 2.0 4.0 0.00 0.00 0.00 49 1018.3
20260507191541 70 74 7.0 8.0 0.00 0.00 0.00 46 1018.5
20260507191038 70 351 5.0 7.0 0.00 0.00 0.00 47 1018.4
20260507190535 70 94 7.0 7.0 0.00 0.00 0.00 46 1018.4
20260507190034 69 346 3.0 9.0 0.00 0.00 0.00 48 1018.6
20260507185532 70 32 6.0 9.0 0.00 0.00 0.00 47 1018.6
20260507185028 70 85 6.0 10.0 0.00 0.00 0.00 46 1018.5
20260507184527 69 56 3.0 11.0 0.00 0.00 0.00 51 1018.5
20260507184024 69 45 10.0 13.0 0.00 0.00 0.00 47 1018.8
20260507183519 69 85 5.0 14.0 0.00 0.00 0.00 46 1018.8
20260507183017 70 0 5.0 8.0 0.00 0.00 0.00 46 1018.7
20260507182513 70 346 6.0 12.0 0.00 0.00 0.00 45 1018.9
20260507182009 69 32 4.0 6.0 0.00 0.00 0.00 44 1019.0
20260507181506 69 349 5.0 10.0 0.00 0.00 0.00 43 1019.1
20260507181002 70 32 5.0 11.0 0.00 0.00 0.00 44 1019.2
20260507180459 69 339 7.0 10.0 0.00 0.00 0.00 43 1019.2
20260507175955 68 0 7.0 10.0 0.00 0.00 0.00 43 1019.3
20260507175452 69 348 4.0 8.0 0.00 0.00 0.00 46 1019.4
20260507174950 68 74 2.0 8.0 0.00 0.00 0.00 44 1019.6
20260507174446 68 23 6.0 9.0 0.00 0.00 0.00 44 1019.8
20260507173944 68 3 2.0 11.0 0.00 0.00 0.00 46 1019.9
20260507173441 68 73 4.0 8.0 0.00 0.00 0.00 46 1020.0
20260507172938 68 73 7.0 11.0 0.00 0.00 0.00 47 1020.1
20260507172434 67 340 2.0 5.0 0.00 0.00 0.00 50 1020.2
20260507171931 67 47 5.0 8.0 0.00 0.00 0.00 49 1020.3
20260507171427 68 66 4.0 6.0 0.00 0.00 0.00 47 1020.4
20260507170924 66 129 5.0 8.0 0.00 0.00 0.00 49 1020.3
20260507170420 67 20 9.0 13.0 0.00 0.00 0.00 48 1020.5
20260507165917 68 351 2.0 8.0 0.00 0.00 0.00 48 1020.6
20260507165413 67 31 3.0 8.0 0.00 0.00 0.00 51 1020.5
20260507164909 66 37 3.0 6.0 0.00 0.00 0.00 52 1020.6
20260507164406 66 37 6.0 11.0 0.00 0.00 0.00 51 1020.6
20260507163903 65 29 7.0 9.0 0.00 0.00 0.00 52 1020.7
20260507163401 65 92 6.0 11.0 0.00 0.00 0.00 52 1020.8
20260507162857 66 106 5.0 9.0 0.00 0.00 0.00 51 1020.8
20260507162352 66 42 7.0 7.0 0.00 0.00 0.00 53 1020.8
20260507161850 65 39 4.0 8.0 0.00 0.00 0.00 52 1021.0
20260507161346 63 40 3.0 8.0 0.00 0.00 0.00 55 1020.9
20260507160843 64 78 4.0 7.0 0.00 0.00 0.00 53 1020.8
20260507160338 64 73 5.0 13.0 0.00 0.00 0.00 52 1021.0